FW5258 Weather Reports


time (UTC)temp
C
wind
direction
speed
KPH
gust
KPH
rain 1hr
cm
rain 24hr
cm
rain mn
cm
humidity
%
barometer
mb
20260507071528 7 190 4.8 9.7 0.00 0.00 0.00 58 1014.5
20260507070806 7 182 4.8 6.4 0.00 0.00 0.00 58 1014.6
20260507070307 7 181 4.8 9.7 0.00 0.00 0.00 58 1014.6
20260507065806 7 178 4.8 9.7 0.00 0.00 0.00 58 1014.7
20260507065307 7 190 4.8 9.7 0.00 0.00 0.00 58 1014.8
20260507064807 7 201 4.8 9.7 0.00 0.00 0.00 58 1014.9
20260507064308 7 199 4.8 11.3 0.00 0.00 0.00 58 1014.8
20260507063806 7 200 4.8 11.3 0.00 0.00 0.00 58 1014.8
20260507063307 7 192 4.8 9.7 0.00 0.00 0.00 59 1014.9
20260507062804 7 196 4.8 9.7 0.00 0.00 0.00 60 1014.9
20260507062257 7 197 4.8 9.7 0.00 0.00 0.00 61 1015.0
20260507061753 6 198 4.8 9.7 0.00 0.00 0.00 63 1015.0
20260507061246 6 216 4.8 8.0 0.00 0.00 0.00 67 1015.0
20260507060741 6 227 3.2 6.4 0.00 0.00 0.00 68 1015.0
20260507060715 6 236 1.6 6.4 0.00 0.00 0.00 71 1015.1
20260507055728 6 322 0.0 1.6 0.00 0.00 0.00 76 1015.1
20260507055223 6 322 0.0 0.0 0.00 0.00 0.00 76 1015.1
20260507054716 6 322 0.0 0.0 0.00 0.00 0.00 75 1015.1
20260507054210 6 321 0.0 3.2 0.00 0.00 0.00 74 1015.2
20260507053704 6 321 0.0 3.2 0.00 0.00 0.00 72 1015.2
20260507053158 6 321 0.0 0.0 0.00 0.00 0.00 71 1015.3
20260507052922 6 321 0.0 0.0 0.00 0.00 0.00 71 1015.3
20260507052403 6 321 0.0 0.0 0.00 0.00 0.00 69 1015.3
20260507051641 6 322 0.0 0.0 0.00 0.00 0.00 68 1015.3
20260507051405 6 317 0.0 0.0 0.00 0.00 0.00 68 1015.2
20260507050628 6 315 0.0 1.6 0.00 0.00 0.00 68 1015.2
20260507050341 6 315 0.0 1.6 0.00 0.00 0.00 68 1015.2
20260507045616 6 310 0.0 0.0 0.00 0.00 0.00 68 1015.3
20260507045109 6 309 0.0 1.6 0.00 0.00 0.00 66 1015.3
20260507044834 6 303 0.0 1.6 0.00 0.00 0.00 67 1015.2
20260507044325 6 302 0.0 0.0 0.00 0.00 0.00 66 1015.2
20260507043550 6 325 0.0 1.6 0.00 0.00 0.00 65 1015.3
20260507043045 6 323 0.0 3.2 0.00 0.00 0.00 65 1015.3
20260507042539 6 323 0.0 3.2 0.00 0.00 0.00 65 1015.2
20260507042033 6 323 0.0 1.6 0.00 0.00 0.00 65 1015.3
20260507041528 6 325 0.0 0.0 0.00 0.00 0.00 64 1015.3
20260507041021 6 325 0.0 0.0 0.00 0.00 0.00 63 1015.3
20260507040515 7 325 0.0 0.0 0.00 0.00 0.00 61 1015.3
20260507040009 7 325 0.0 0.0 0.00 0.00 0.00 62 1015.2
20260507035730 7 325 0.0 0.0 0.00 0.00 0.00 60 1015.2
20260507034959 7 325 0.0 0.0 0.00 0.00 0.00 59 1015.2
20260507034451 7 325 0.0 0.0 0.00 0.00 0.00 58 1015.2
20260507033945 7 325 0.0 0.0 0.00 0.00 0.00 57 1015.3
20260507033439 7 325 0.0 0.0 0.00 0.00 0.00 56 1015.4
20260507032935 7 325 0.0 0.0 0.00 0.00 0.00 56 1015.3
20260507032427 7 324 0.0 0.0 0.00 0.00 0.00 55 1015.4
20260507031921 7 316 0.0 0.0 0.00 0.00 0.00 56 1015.4
20260507031415 8 325 0.0 0.0 0.00 0.00 0.00 55 1015.4
20260507030908 8 320 0.0 0.0 0.00 0.00 0.00 55 1015.4
20260507030402 8 323 0.0 0.0 0.00 0.00 0.00 51 1015.4
20260507025856 8 310 0.0 0.0 0.00 0.00 0.00 50 1015.3
20260507025351 8 325 0.0 0.0 0.00 0.00 0.00 50 1015.4
20260507024847 8 326 0.0 0.0 0.00 0.00 0.00 50 1015.3
20260507024346 8 326 0.0 0.0 0.00 0.00 0.00 51 1015.3
20260507023849 8 326 0.0 0.0 0.00 0.00 0.00 50 1015.3
20260507023349 8 326 0.0 0.0 0.00 0.00 0.00 50 1015.3
20260507022845 9 326 0.0 0.0 0.00 0.00 0.00 48 1015.3
20260507022345 9 326 0.0 0.0 0.00 0.00 0.00 48 1015.2
20260507021847 9 326 0.0 0.0 0.00 0.00 0.00 48 1015.1
20260507021342 9 326 0.0 0.0 0.00 0.00 0.00 48 1015.0
20260507021328 10 326 0.0 0.0 0.00 0.00 0.00 46 1015.0
20260507020337 10 326 0.0 0.0 0.00 0.00 0.00 45 1014.9
20260507015837 10 326 0.0 0.0 0.00 0.00 0.00 45 1014.9
20260507015337 10 326 0.0 0.0 0.00 0.00 0.00 44 1014.7
20260507014835 10 326 0.0 0.0 0.00 0.00 0.00 44 1014.7
20260507014555 10 326 0.0 0.0 0.00 0.00 0.00 44 1014.7
20260507014057 11 326 0.0 0.0 0.00 0.00 0.00 43 1014.7
20260507013333 11 326 0.0 1.6 0.00 0.00 0.00 43 1014.7
20260507012833 11 326 0.0 3.2 0.00 0.00 0.00 43 1014.7
20260507012338 11 326 1.6 3.2 0.00 0.00 0.00 42 1014.6
20260507011838 11 326 0.0 3.2 0.00 0.00 0.00 41 1014.6
20260507011332 11 326 1.6 3.2 0.00 0.00 0.00 41 1014.7
20260507010829 11 326 1.6 6.4 0.00 0.00 0.00 41 1014.6
20260507010537 12 327 1.6 6.4 0.00 0.00 0.00 40 1014.6
20260507005814 12 327 3.2 4.8 0.00 0.00 0.00 40 1014.6
20260507005308 12 327 3.2 9.7 0.00 0.00 0.00 40 1014.6
20260507005025 12 327 3.2 9.7 0.00 0.00 0.00 40 1014.7
20260507004256 12 326 4.8 12.9 0.00 0.00 0.00 40 1014.7
20260507003751 12 327 6.4 14.5 0.00 0.00 0.00 40 1014.6
20260507003251 13 328 6.4 14.5 0.00 0.00 0.00 40 1014.6
20260507002751 13 286 8.0 17.7 0.00 0.00 0.00 39 1014.6
20260507002249 13 327 9.7 17.7 0.00 0.00 0.00 39 1014.5
20260507001749 13 330 8.0 17.7 0.00 0.00 0.00 38 1014.5
20260507001248 13 319 6.4 12.9 0.00 0.00 0.00 40 1014.5
20260507000748 13 309 4.8 9.7 0.00 0.00 0.00 38 1014.4
20260507000247 13 315 4.8 14.5 0.00 0.00 0.00 40 1014.4
20260506235747 13 323 6.4 16.1 0.00 0.00 0.00 39 1014.4
20260506235247 13 44 9.7 20.9 0.00 0.00 0.00 38 1014.4
20260506234744 13 321 9.7 20.9 0.00 0.00 0.00 38 1014.4
20260506234246 13 348 9.7 20.9 0.00 0.00 0.00 40 1014.4
20260506233744 13 286 12.9 22.5 0.00 0.00 0.00 37 1014.5
20260506233245 13 300 12.9 22.5 0.00 0.00 0.00 37 1014.5
20260506232746 14 319 12.9 20.9 0.00 0.00 0.00 37 1014.5
20260506232245 14 307 11.3 22.5 0.00 0.00 0.00 37 1014.6
20260506231745 14 326 11.3 22.5 0.00 0.00 0.00 38 1014.6
20260506231515 14 317 12.9 20.9 0.00 0.00 0.00 37 1014.6
20260506230745 14 308 11.3 19.3 0.00 0.00 0.00 37 1014.7
20260506230244 14 315 9.7 20.9 0.00 0.00 0.00 39 1014.8
20260506225745 13 281 9.7 20.9 0.00 0.00 0.00 40 1014.7
20260506225245 13 267 12.9 25.7 0.00 0.00 0.00 38 1014.9
20260506225006 14 304 12.9 25.7 0.00 0.00 0.00 38 1014.8
20260506224245 14 281 12.9 22.5 0.00 0.00 0.00 39 1014.8
20260506224003 13 301 14.5 27.4 0.00 0.00 0.00 40 1014.8
20260506223246 13 299 12.9 27.4 0.00 0.00 0.00 37 1014.8
20260506222747 14 306 9.7 20.9 0.00 0.00 0.00 40 1014.7
20260506222511 13 355 9.7 20.9 0.00 0.00 0.00 40 1014.8
20260506221745 13 295 9.7 20.9 0.00 0.00 0.00 41 1014.9
20260506221244 13 28 11.3 20.9 0.00 0.00 0.00 39 1014.8
20260506221005 13 313 14.5 25.7 0.00 0.00 0.00 39 1014.9
20260506220241 13 311 14.5 25.7 0.00 0.00 0.00 40 1014.7
20260506215952 13 288 12.9 24.1 0.00 0.00 0.00 39 1014.7
20260506215232 13 272 14.5 24.1 0.00 0.00 0.00 36 1014.8
20260506214726 14 313 14.5 24.1 0.00 0.00 0.00 38 1014.8
20260506214221 14 307 14.5 24.1 0.00 0.00 0.00 39 1014.8
20260506213714 14 285 11.3 22.5 0.00 0.00 0.00 38 1015.0
20260506213209 14 322 11.3 19.3 0.00 0.00 0.00 41 1015.0
20260506212703 14 300 14.5 24.1 0.00 0.00 0.00 37 1015.0
20260506212202 14 340 12.9 24.1 0.00 0.00 0.00 40 1015.1
20260506211702 13 309 14.5 27.4 0.00 0.00 0.00 42 1015.1
20260506211202 13 295 14.5 27.4 0.00 0.00 0.00 40 1015.2
20260506210702 13 290 12.9 24.1 0.00 0.00 0.00 41 1015.3
20260506210203 13 274 12.9 24.1 0.00 0.00 0.00 39 1015.3
20260506205926 13 17 12.9 24.1 0.00 0.00 0.00 40 1015.4
20260506205202 13 347 9.7 19.3 0.00 0.00 0.00 43 1015.5
20260506204704 13 313 11.3 19.3 0.00 0.00 0.00 42 1015.4
20260506204209 13 290 12.9 20.9 0.00 0.00 0.00 41 1015.3
20260506203702 13 337 14.5 27.4 0.00 0.00 0.00 40 1015.3
20260506203202 13 321 12.9 27.4 0.00 0.00 0.00 40 1015.3
20260506202702 13 300 9.7 19.3 0.00 0.00 0.00 41 1015.4
20260506202424 13 348 11.3 22.5 0.00 0.00 0.00 41 1015.5
20260506201701 13 301 14.5 24.1 0.00 0.00 0.00 41 1015.5
20260506201200 13 288 16.1 24.1 0.00 0.00 0.00 40 1015.6
20260506200918 13 273 14.5 24.1 0.00 0.00 0.00 42 1015.6
20260506200153 13 327 12.9 20.9 0.00 0.00 0.00 41 1015.6
20260506195647 13 327 12.9 22.5 0.00 0.00 0.00 43 1015.7
20260506195358 13 339 12.9 25.7 0.00 0.00 0.00 40 1015.8
20260506194857 13 282 14.5 25.7 0.00 0.00 0.00 42 1015.8
20260506194129 13 347 12.9 20.9 0.00 0.00 0.00 42 1015.7
20260506193624 13 293 11.3 19.3 0.00 0.00 0.00 42 1015.8
20260506193117 13 313 12.9 24.1 0.00 0.00 0.00 46 1015.9
20260506192611 13 349 12.9 25.7 0.00 0.00 0.00 42 1015.8
20260506192105 13 323 12.9 25.7 0.00 0.00 0.00 43 1015.8
20260506191559 13 277 9.7 22.5 0.00 0.00 0.00 41 1015.9
20260506191539 13 282 6.4 19.3 0.00 0.00 0.00 44 1015.9
20260506190817 13 330 8.0 17.7 0.00 0.00 0.00 44 1015.8
20260506190039 12 328 11.3 24.1 0.00 0.00 0.00 43 1015.9
20260506185800 12 318 12.9 24.1 0.00 0.00 0.00 41 1016.0
20260506185028 13 298 12.9 29.0 0.00 0.00 0.00 43 1015.9
20260506184522 12 306 14.5 29.0 0.00 0.00 0.00 43 1015.9
20260506184017 12 287 12.9 22.5 0.00 0.00 0.00 43 1015.9
20260506183510 12 329 14.5 27.4 0.00 0.00 0.00 47 1015.9
20260506183004 12 315 14.5 27.4 0.00 0.00 0.00 43 1015.9
20260506182457 12 312 12.9 22.5 0.00 0.00 0.00 40 1015.9
20260506181952 12 285 9.7 19.3 0.00 0.00 0.00 44 1015.9
20260506181446 12 327 9.7 17.7 0.00 0.00 0.00 41 1016.0
20260506180940 12 238 12.9 25.7 0.00 0.00 0.00 40 1016.0
20260506180436 13 300 12.9 25.7 0.00 0.00 0.00 44 1016.1
20260506175936 13 306 12.9 24.1 0.00 0.00 0.00 42 1016.1
20260506175436 13 304 9.7 24.1 0.00 0.00 0.00 41 1016.1
20260506175207 13 326 9.7 24.1 0.00 0.00 0.00 44 1016.1
20260506174436 13 327 9.7 17.7 0.00 0.00 0.00 45 1016.1
20260506173936 13 289 8.0 20.9 0.00 0.00 0.00 45 1016.0
20260506173440 13 306 9.7 20.9 0.00 0.00 0.00 43 1016.1
20260506172937 12 264 9.7 17.7 0.00 0.00 0.00 45 1016.2
20260506172436 12 301 9.7 20.9 0.00 0.00 0.00 42 1016.2
20260506172201 12 312 11.3 20.9 0.00 0.00 0.00 42 1016.2
20260506171436 12 321 9.7 19.3 0.00 0.00 0.00 42 1016.2
20260506171416 12 311 12.9 24.1 0.00 0.00 0.00 40 1016.2
20260506170701 12 305 12.9 24.1 0.00 0.00 0.00 40 1016.4
20260506165936 12 284 12.9 22.5 0.00 0.00 0.00 44 1016.4
20260506165436 12 299 12.9 22.5 0.00 0.00 0.00 43 1016.2
20260506165203 12 305 11.3 22.5 0.00 0.00 0.00 44 1016.2
20260506164700 12 321 8.0 19.3 0.00 0.00 0.00 45 1016.3
20260506163930 12 52 8.0 19.3 0.00 0.00 0.00 44 1016.3
20260506163648 12 61 9.7 24.1 0.00 0.00 0.00 45 1016.3
20260506162922 11 9 11.3 24.1 0.00 0.00 0.00 45 1016.3
20260506162646 11 341 9.7 19.3 0.00 0.00 0.00 45 1016.2
20260506161922 12 296 9.7 22.5 0.00 0.00 0.00 47 1016.2
20260506161653 11 325 12.9 22.5 0.00 0.00 0.00 45 1016.0
20260506160919 11 288 14.5 25.7 0.00 0.00 0.00 45 1015.9
20260506160420 11 329 12.9 25.7 0.00 0.00 0.00 42 1016.0
20260506155920 11 321 12.9 20.9 0.00 0.00 0.00 47 1015.9
20260506155425 11 336 12.9 22.5 0.00 0.00 0.00 48 1015.9
20260506154923 11 302 9.7 22.5 0.00 0.00 0.00 47 1016.0
20260506154423 11 317 9.7 19.3 0.00 0.00 0.00 47 1016.0
20260506153923 11 344 9.7 20.9 0.00 0.00 0.00 47 1015.9
20260506153422 11 333 9.7 20.9 0.00 0.00 0.00 46 1015.8
20260506152923 11 312 6.4 14.5 0.00 0.00 0.00 50 1015.8
20260506152421 11 310 6.4 14.5 0.00 0.00 0.00 49 1015.8
20260506151917 11 57 6.4 14.5 0.00 0.00 0.00 54 1015.9
20260506151417 11 47 6.4 12.9 0.00 0.00 0.00 52 1015.9
20260506150917 11 351 6.4 12.9 0.00 0.00 0.00 52 1015.8
20260506150413 11 336 6.4 17.7 0.00 0.00 0.00 51 1015.7
20260506145915 10 321 8.0 17.7 0.00 0.00 0.00 52 1015.6
20260506145413 10 319 6.4 12.9 0.00 0.00 0.00 53 1015.5
20260506144913 10 59 6.4 12.9 0.00 0.00 0.00 54 1015.6
20260506144412 10 57 6.4 12.9 0.00 0.00 0.00 56 1015.5
20260506143913 10 340 6.4 12.9 0.00 0.00 0.00 56 1015.6
20260506143411 10 325 6.4 12.9 0.00 0.00 0.00 53 1015.5
20260506142911 10 340 4.8 12.9 0.00 0.00 0.00 54 1015.5
20260506142411 10 343 4.8 9.7 0.00 0.00 0.00 57 1015.4
20260506141912 9 339 4.8 9.7 0.00 0.00 0.00 55 1015.4
20260506141412 9 36 6.4 12.9 0.00 0.00 0.00 55 1015.5
20260506140911 9 349 6.4 12.9 0.00 0.00 0.00 55 1015.4
20260506140412 9 43 6.4 12.9 0.00 0.00 0.00 61 1015.2
20260506135910 8 343 6.4 12.9 0.00 0.00 0.00 59 1015.3
20260506135409 8 330 6.4 14.5 0.00 0.00 0.00 59 1015.2
20260506134909 8 342 6.4 14.5 0.00 0.00 0.00 59 1015.1
20260506134636 8 351 6.4 12.9 0.00 0.00 0.00 61 1015.1
20260506133904 8 336 6.4 12.9 0.00 0.00 0.00 61 1015.0
20260506133357 8 55 6.4 12.9 0.00 0.00 0.00 61 1015.0
20260506132852 7 23 6.4 11.3 0.00 0.00 0.00 63 1014.9
20260506132345 7 17 6.4 14.5 0.00 0.00 0.00 64 1014.9
20260506131839 7 57 6.4 14.5 0.00 0.00 0.00 64 1014.8
20260506131333 7 31 6.4 9.7 0.00 0.00 0.00 66 1014.7
20260506130826 7 343 4.8 9.7 0.00 0.00 0.00 67 1014.7
20260506130320 6 337 4.8 8.0 0.00 0.00 0.00 68 1014.7
20260506125816 6 19 4.8 8.0 0.00 0.00 0.00 68 1014.7
20260506125528 6 355 3.2 8.0 0.00 0.00 0.00 69 1014.6
20260506124803 6 345 3.2 8.0 0.00 0.00 0.00 69 1014.6
20260506124256 6 355 3.2 8.0 0.00 0.00 0.00 69 1014.5
20260506123751 6 316 3.2 6.4 0.00 0.00 0.00 69 1014.5
20260506123244 6 315 3.2 6.4 0.00 0.00 0.00 69 1014.4
20260506122739 6 314 3.2 4.8 0.00 0.00 0.00 70 1014.5
20260506122233 6 314 3.2 4.8 0.00 0.00 0.00 69 1014.5
20260506121726 6 314 3.2 6.4 0.00 0.00 0.00 68 1014.5
20260506121222 6 314 3.2 6.4 0.00 0.00 0.00 68 1014.5
20260506120716 6 314 3.2 6.4 0.00 0.00 0.00 68 1014.5
20260506120210 6 314 3.2 6.4 0.00 0.00 0.00 68 1014.4
20260506115704 6 314 3.2 6.4 0.00 0.00 0.00 68 1014.2
20260506115156 6 313 3.2 6.4 0.00 0.00 0.00 68 1014.2
20260506114651 6 320 4.8 6.4 0.00 0.00 0.00 68 1014.1
20260506114145 6 320 4.8 6.4 0.00 0.00 0.00 68 1014.0
20260506113638 6 319 3.2 6.4 0.00 0.00 0.00 68 1013.8
20260506113133 6 319 1.6 6.4 0.00 0.00 0.00 67 1013.7
20260506112630 6 320 3.2 4.8 0.00 0.00 0.00 67 1013.7
20260506112121 6 320 3.2 6.4 0.00 0.00 0.00 67 1013.7
20260506111615 6 320 3.2 6.4 0.00 0.00 0.00 66 1013.5
20260506111109 6 320 3.2 8.0 0.00 0.00 0.00 66 1013.4
20260506110603 6 320 3.2 8.0 0.00 0.00 0.00 66 1013.3
20260506110057 6 319 3.2 6.4 0.00 0.00 0.00 66 1013.2
20260506105811 6 319 3.2 4.8 0.00 0.00 0.00 65 1013.0
20260506105045 6 319 3.2 4.8 0.00 0.00 0.00 65 1012.9
20260506104539 6 319 3.2 4.8 0.00 0.00 0.00 65 1012.7
20260506104032 6 319 3.2 6.4 0.00 0.00 0.00 65 1012.8
20260506103528 6 319 3.2 6.4 0.00 0.00 0.00 64 1012.6
20260506103021 7 319 3.2 4.8 0.00 0.00 0.00 64 1012.7
20260506102514 7 319 1.6 4.8 0.00 0.00 0.00 64 1012.8
20260506102008 7 318 1.6 4.8 0.00 0.00 0.00 63 1012.6
20260506101502 7 318 3.2 6.4 0.00 0.00 0.00 63 1012.7
20260506101216 7 318 3.2 6.4 0.00 0.00 0.00 63 1012.7
20260506100451 7 318 3.2 6.4 0.00 0.00 0.00 63 1012.6
20260506100425 7 318 3.2 9.7 0.00 0.00 0.00 63 1012.7
20260506095440 7 318 3.2 9.7 0.00 0.03 0.00 63 1012.6
20260506094932 7 316 4.8 9.7 0.00 0.03 0.00 63 1012.6
20260506094427 7 311 4.8 9.7 0.00 0.03 0.00 63 1012.6
20260506093921 7 328 4.8 8.0 0.00 0.03 0.00 63 1012.6
20260506093416 7 328 4.8 8.0 0.00 0.03 0.00 63 1012.5
20260506092910 7 328 4.8 8.0 0.00 0.05 0.00 62 1012.4
20260506092409 7 329 3.2 8.0 0.00 0.05 0.00 62 1012.4
20260506091857 7 331 3.2 8.0 0.00 0.05 0.00 62 1012.2
20260506091351 7 333 3.2 6.4 0.00 0.05 0.00 62 1012.3
20260506091114 7 333 3.2 4.8 0.00 0.05 0.00 62 1012.2
20260506090338 7 333 3.2 6.4 0.00 0.05 0.00 62 1012.1
20260506085832 7 333 3.2 8.0 0.00 0.05 0.00 61 1012.0
20260506085327 7 334 3.2 8.0 0.00 0.05 0.00 61 1011.8
20260506084821 7 333 3.2 6.4 0.00 0.05 0.00 61 1011.9
20260506084314 7 333 4.8 8.0 0.00 0.05 0.00 61 1011.8
20260506083809 8 331 4.8 8.0 0.00 0.05 0.00 61 1011.8
20260506083303 8 329 4.8 8.0 0.00 0.05 0.00 61 1011.8
20260506082757 8 330 3.2 8.0 0.00 0.05 0.00 60 1011.9
20260506082250 8 330 3.2 6.4 0.00 0.05 0.00 60 1011.9
20260506081744 8 330 3.2 6.4 0.00 0.05 0.00 60 1011.9
20260506081239 8 330 3.2 6.4 0.00 0.05 0.00 59 1012.0
20260506080732 8 330 3.2 6.4 0.00 0.05 0.00 59 1011.8
20260506080227 8 330 3.2 6.4 0.00 0.05 0.00 59 1011.9
20260506073451 8 325 4.8 8.0 0.00 0.05 0.00 59 1011.4
20260506072727 8 324 4.8 8.0 0.00 0.05 0.00 58 1011.5
20260506072503 8 323 4.8 8.0 0.00 0.05 0.00 57 1011.5